Burnet, TX

10:40 AM CST on November 18, 2017 (GMT -0600)
Burnet Municipal-Craddock

Weather History for KBMQ - February, 2014

Change the Weather History Date:

Thursday, February 27, 2014

  Actual Average Record
Temperature  
Mean Temperature 42 °F -  
Max Temperature 57 °F 61 °F 84 °F (2009)
Min Temperature 27 °F 41 °F 18 °F (2002)
Degree Days  
Heating Degree Days 23    
Moisture  
Dew Point 25 °F    
Average Humidity 53    
Maximum Humidity 75    
Minimum Humidity 33    
Precipitation  
Precipitation 0.00 in - - ()
Sea Level Pressure  
Sea Level Pressure 30.06 in    
Wind  
Wind Speed 4 mph (SSE)    
Max Wind Speed 10 mph    
Max Gust Speed 18 mph    
Visibility 10 miles    
Events      
Averages and records for this station are not official NWS values.
T = Trace of Precipitation, MM = Missing Value Source: NWS Daily Summary

Daily Weather History Graph

Daily Weather History Graph

Search for Another Location

Airport or City:

Trip Planner

Search our weather history database for the weather conditions in past years. The results will help you decide how hot, cold, wet, or windy it might be!

Date:

Astronomy

Feb. 27, 2014 Rise Set
Actual Time 7:01 AM CST 6:30 PM CST
Civil Twilight 6:37 AM CST 6:54 PM CST
Nautical Twilight 6:09 AM CST 7:22 PM CST
Astronomical Twilight 5:41 AM CST 7:50 PM CST
Moon 5:30 AM CST (2/27) 5:00 PM CST (2/27)
Length of Visible Light 12h 17m
Length of Day
11h 28m
Waning Crescent, 4% of the Moon is Illuminated
Feb 27
Waning Crescent
Mar 1
New
Mar 8
First Quarter
Mar 16
Full
Mar 23
Last Quarter

Hourly Weather History & Observations

Time (CST) Temp. Windchill Dew Point Humidity Pressure Visibility Wind Dir Wind Speed Gust Speed Precip Events Conditions
12:53 AM 28.9 °F - 21.0 °F 72% 30.19 in 10.0 mi Calm Calm - N/A   Clear
1:53 AM 28.0 °F 24.2 °F 21.0 °F 75% 30.19 in 10.0 mi NNE 3.5 mph - N/A   Clear
2:53 AM 28.0 °F - 21.0 °F 75% 30.17 in 10.0 mi Calm Calm - N/A   Clear
3:53 AM 28.0 °F - 21.0 °F 75% 30.16 in 10.0 mi Calm Calm - N/A   Clear
4:53 AM 28.0 °F - 19.9 °F 72% 30.15 in 10.0 mi Calm Calm - N/A   Clear
5:53 AM 27.0 °F 21.6 °F 19.9 °F 75% 30.15 in 10.0 mi NNE 4.6 mph - N/A   Clear
6:53 AM 27.0 °F 23.0 °F 19.0 °F 72% 30.17 in 10.0 mi NNE 3.5 mph - N/A   Clear
7:53 AM 32.0 °F 27.5 °F 18.0 °F 56% 30.17 in 10.0 mi North 4.6 mph - N/A   Clear
8:53 AM 37.9 °F - 19.0 °F 47% 30.19 in 10.0 mi Calm Calm - N/A   Clear
9:53 AM 41.0 °F 37.1 °F 21.0 °F 45% 30.19 in 10.0 mi South 5.8 mph - N/A   Clear
10:53 AM 43.0 °F 40.3 °F 21.0 °F 42% 30.17 in 10.0 mi Variable 4.6 mph - N/A   Clear
11:53 AM 46.9 °F - 21.0 °F 36% 30.14 in 10.0 mi South 8.1 mph - N/A   Clear
12:53 PM 50.0 °F - 21.9 °F 33% 30.09 in 10.0 mi SW 5.8 mph - N/A   Clear
1:53 PM 52.0 °F - 24.1 °F 34% 30.04 in 10.0 mi Variable 5.8 mph 16.1 mph N/A   Clear
2:53 PM 54.0 °F - 27.0 °F 35% 29.99 in 10.0 mi SSE 10.4 mph - N/A   Clear
3:53 PM 57.0 °F - 28.9 °F 34% 29.96 in 10.0 mi South 10.4 mph - N/A   Clear
4:53 PM 55.9 °F - 30.9 °F 39% 29.94 in 10.0 mi South 9.2 mph 17.3 mph N/A   Clear
5:53 PM 55.0 °F - 30.9 °F 40% 29.94 in 10.0 mi South 10.4 mph 18.4 mph N/A   Clear
6:53 PM 52.0 °F - 30.9 °F 45% 29.93 in 10.0 mi SSE 6.9 mph - N/A   Clear
7:53 PM 48.9 °F - 30.9 °F 50% 29.93 in 10.0 mi South 8.1 mph - N/A   Clear
8:53 PM 48.0 °F - 30.9 °F 52% 29.94 in 10.0 mi South 10.4 mph - N/A   Clear
9:53 PM 46.0 °F 41.4 °F 30.9 °F 56% 29.92 in 10.0 mi South 9.2 mph - N/A   Clear
10:53 PM 45.0 °F 39.7 °F 30.9 °F 58% 29.91 in 10.0 mi South 10.4 mph - N/A   Clear
11:53 PM 45.0 °F 40.1 °F 30.9 °F 58% 29.89 in 10.0 mi South 9.2 mph - N/A   Clear